{"data":{"norad_id":61694,"epoch":"2026-09-21T20:25:41.097504Z","epoch_age_seconds":71754,"freshness":"FRESH","line1":"1 61694U 24195H   26264.85117011 -.00000220  00000+0  30429-5 0  9998","line2":"2 61694  53.1594 139.2087 0000958  84.2304 275.8823 15.69706597109840","mean_motion":15.69706597,"eccentricity":9.58e-5,"inclination_deg":53.1594,"raan_deg":139.2087,"arg_perigee_deg":84.2304,"mean_anomaly_deg":275.8823,"bstar":3.0429e-6,"rev_number":10984,"period_min":91.736889094568,"perigee_km":359.09100024057,"apogee_km":360.38197680097,"semimajor_km":6737.8734885208,"source":"CELESTRAK","updated_at":"2026-09-22T09:00:49.407321Z"}}